Regional Weather Roundup
Issued by NWS

Home | Current Version | Previous Version | Graphics & Text | Print | Product List | Glossary On
Versions: 1 2 3 4 5 6 7 8 9 10 11 12 13 14 15 16 17 18 19 20 21 22 23 24 25 26 27 28 29 30 31 32 33 34 35 36 37 38 39 40 41 42 43 44 45 46 47 48 49 50
000
ASUS43 KIND 020309
RWRIN

WEATHER ROUNDUP FOR INDIANA
NATIONAL WEATHER SERVICE INDIANAPOLIS IN
1100 PM EDT TUE SEP 01 2015

NOTE: "FAIR" INDICATES FEW OR NO CLOUDS BELOW 12,000 FEET WITH NO
SIGNIFICANT WEATHER AND/OR OBSTRUCTIONS TO VISIBILITY.

* - STATION DOES NOT REPORT WEATHER SUCH AS PRECIPITATION OR FOG.

+ - STATION NOT QUALITY CONTROLLED BY THE NATIONAL WEATHER SERVICE.
    USE DATA WITH CAUTION...ESPECIALLY DEWPOINT AND RELATIVE
    HUMIDITY OBSERVATIONS.

INZ001>003-010>013-019-020-020400-
NORTHWEST INDIANA

CITY           SKY/WX    TMP DP  RH WIND       PRES   REMARKS
GARY /AIRPORT/ PTCLDY    79  70  73 S8        30.05S
KNOX *+        CLEAR     72  68  88 SW5       30.07R
LA PORTE +     CLEAR     74  74 100 SW3       30.08S
MICHIGAN CITY+ CLEAR     75  68  78 S8        30.06S
MONTICELLO +   CLEAR     74  70  85 S3        30.08R
RENSSELAER +   CLEAR     73  72  94 S6        30.08S
VALPARAISO     CLEAR     74  69  85 SW3       30.07S

$$

LMZ046-743>745-020400-
SOUTHERN LAKE MICHIGAN

STATION/POSITION TIME  TEMP    WIND        PRES    WAVE
                       AIR SEA DIR/SP/G            HT
                 (UTC) (F)     (DEG/KT/KT) (MB)    (FT)
BURNS HARBOR     0200   78     190/ 12/ 16 1017.6R
MICHIGAN CITY    0200   78     170/ 14/ 16   N/A
5NW MICH CITY    0300   76 73  210/  8/ 10   N/A     1

$$

INZ004-005-014>016-021>024-020400-
NORTH CENTRAL INDIANA

CITY           SKY/WX    TMP DP  RH WIND       PRES   REMARKS
GOSHEN         CLEAR     74  68  81 SW7       30.08R
LOGANSPORT +   CLEAR     70  63  78 SW7       30.10R
PERU/GRISSOM   CLEAR     69  66  89 SW8       30.09R
ROCHESTER +    CLEAR     77  70  78 SW5       30.09S
SOUTH BEND     CLEAR     75  70  84 SW8       30.08R
WARSAW +       CLEAR     73  68  83 SW3       30.09R

$$

INZ006>009-017-018-025>027-020400-
NORTHEAST INDIANA

CITY           SKY/WX    TMP DP  RH WIND       PRES   REMARKS
ANGOLA *+      CLEAR     73  70  88 SW3       30.09R
AUBURN +       CLEAR     73  68  83 SW3       30.09S
FORT WAYNE     CLEAR     72  68  87 SW6       30.10R
HUNTINGTON +   CLEAR     72  67  84 S3        30.10R

$$

INZ028-029-035-036-043>045-051>053-020400-
WEST CENTRAL INDIANA

CITY           SKY/WX    TMP DP  RH WIND       PRES   REMARKS
GREENCASTLE +  CLEAR     70  64  83 CALM      30.11S
LAFAYETTE      CLEAR     73  67  81 CALM      30.08S
TERRE HAUTE    CLEAR     71  67  87 CALM      30.10S

$$

INZ030>032-037>040-046>048-054>057-064-065-020400-
CENTRAL INDIANA

CITY           SKY/WX    TMP DP  RH WIND       PRES   REMARKS
FRANKFORT +    CLEAR    N/A N/A N/A CALM      30.12S
GREENWOOD *+   CLEAR     68  64  88 CALM      30.12R
INDIANAPOLIS   CLEAR     75  66  73 SW5       30.10R
-EAGLE CREEK   CLEAR     73  68  84 CALM      30.10S
KOKOMO *+      CLEAR     72  37  28 SW6       30.10S
MARION +       CLEAR     68  61  79 S3        30.11S
MT COMFORT *+  CLEAR     66  66 100 CALM      30.12R
SHELBYVILLE    CLEAR     71  67  87 CALM      30.10S
ZIONSVILLE +   CLEAR     67  64  87 CALM      30.12R

$$

INZ033-034-041-042-049-050-058-059-020400-
EAST CENTRAL INDIANA

CITY           SKY/WX    TMP DP  RH WIND       PRES   REMARKS
MUNCIE         CLEAR     73  67  81 SW6       30.11R

$$

INZ060-061-067>069-081>083-085>088-020400-
SOUTHWEST INDIANA

CITY           SKY/WX    TMP DP  RH WIND       PRES   REMARKS
EVANSVILLE     CLEAR     76  70  82 CALM      30.11R
HUNTINGBURG *+ CLEAR     73  68  83 CALM      30.11S
WASHINGTON +   CLEAR     71  67  87 CALM      30.10S

$$

INZ062-063-066-070>080-084-089>092-020400-
SOUTH CENTRAL AND SOUTHEAST INDIANA

CITY           SKY/WX    TMP DP  RH WIND       PRES   REMARKS
BLOOMINGTON    CLEAR     69  67  93 CALM      30.12S
MADISON *+     CLEAR     70  66  88 CALM      30.14R
NORTH VERNON + CLEAR     73  73 100 CALM      30.13R
SEYMOUR +      CLEAR     70  70 100 CALM      30.11R FOG

$$



USA.gov is the U.S. government's official web portal to all federal, state and local government web resources and services.